Regional Weather Roundup
Issued by NWS San Angelo, TX

Home | Current Version | Previous Version | Text Only | Print | Product List | Glossary On
Versions: 1 2 3 4 5 6 7 8 9 10 11 12 13 14 15 16 17 18 19 20 21 22 23 24 25 26 27 28 29 30 31 32 33 34 35 36 37 38 39 40 41 42 43 44 45 46 47 48 49 50
000
ASUS44 KSJT 252310
RWRSJT
WEST CENTRAL TEXAS REGIONAL WEATHER ROUNDUP
NATIONAL WEATHER SERVICE SAN ANGELO TX
500 PM CST TUE NOV 25 2014

NOTE: "FAIR" INDICATES FEW OR NO CLOUDS BELOW 12,000 FEET WITH NO
SIGNIFICANT WEATHER AND/OR OBSTRUCTIONS TO VISIBILITY.

TXZ049-054-064>066-071>073-076>078-098-099-113-114-127-128-139-140-
154-155-168>170-260000
...LOCATIONS ACROSS WEST CENTRAL TEXAS...

CITY           SKY/WX    TMP DP  RH WIND       PRES   REMARKS
SAN ANGELO     CLEAR     60  16  18 W13       30.19F
ABILENE        CLEAR     57  16  20 W15       30.16F
DYESS AFB      CLEAR     58  19  22 SW15      30.15F
JUNCTION       CLEAR     61  18  18 W10       30.21S
SWEETWATER     CLEAR     56  16  21 SW14      30.19S
BROWNWOOD      CLEAR     57  23  26 W12G17    30.19F
COLEMAN        CLEAR     57  32  38 W10       30.19F
SONORA         CLEAR     59  18  20 NW9       30.26F
OZONA          FAIR      57  19  23 W8        30.25F
BRADY          CLEAR     57  25  28 W10       30.19F
$$

TEXAS PANHANDLE/OKLAHOMA PANHANDLE

CITY           SKY/WX    TMP DP  RH WIND       PRES   REMARKS
AMARILLO       CLEAR     53   7  15 SW17G25   29.99F
BORGER         CLEAR     55   8  15 SW16G23   29.97F
CANADIAN       MOCLDY    55  16  22 SW13G22   29.98F
DALHART        PTCLDY    53  11  18 SW14      29.96F
DUMAS            N/A     50  11  20 SW17      29.96F
GUYMON         NOT AVBL
HEREFORD       PTCLDY    57   9  15 MISG      30.00F
PAMPA          PTCLDY    52  10  18 SW16G26   29.98F
PERRYTON       PTCLDY    52  13  21 SW13      29.96S
$$

SOUTHERN PANHANDLE/SOUTH PLAINS/ROLLING PLAINS

CITY           SKY/WX    TMP DP  RH WIND       PRES   REMARKS
LUBBOCK        PTCLDY    53  10  18 W17       30.09F
SNYDER         CLEAR     54  22  28 SW16      30.16S
CHILDRESS      PTCLDY    58  16  19 SW16      30.07F
SEMINOLE       CLEAR     53  14  21 W21       30.18R
$$

PERMIAN BASIN

CITY           SKY/WX    TMP DP  RH WIND       PRES   REMARKS
MIDLAND        FAIR      54  13  19 SW18      30.18F
ODESSA         CLEAR     54  10  17 SW18G24   30.19F
WINK           CLEAR     58   6  12 SW16G24   30.16F
$$

FAR WEST/SOUTHWEST MOUNTAINS/TRANS PECOS

CITY           SKY/WX    TMP DP  RH WIND       PRES   REMARKS
ALPINE         CLEAR     52   4  14 W13       30.32S
DRYDEN           N/A     63  10  12 SW9       30.22S
EL PASO        MOSUNNY   54   7  15 SW14      30.29F
FORT STOCKTON  CLEAR     55  12  18 W6        30.23F
GUADALUPE PASS CLEAR     47   5  18 W37G45    30.23F WCI  37
MARFA          CLEAR     50   3  14 W14G23    30.30S
PECOS          CLEAR     59  12  16 SW10      30.20F
$$

DALLAS/FORT WORTH METROPLEX

CITY           SKY/WX    TMP DP  RH WIND       PRES   REMARKS
DFW AIRPORT    PTCLDY    59  27  29 W10       30.16S
FTW MEACHAM    CLEAR     59  29  31 SW9       30.16S
DAL-EXECUTIVE  CLEAR     61  22  22 W10       30.16R
GRAND PRAIRIE  CLEAR     61  30  31 W12       30.18S
ADDISON        CLEAR     61  25  25 W5        30.16
MESQUITE       CLEAR     61  25  25 W12       30.17F
LANCASTER      CLEAR     60  19  20 W9        30.18S
$$

NORTH CENTRAL TEXAS

CITY           SKY/WX    TMP DP  RH WIND       PRES   REMARKS
SHRMAN/DENISON CLEAR     57  32  39 W3        30.16S
GAINESVILLE    CLEAR     55  25  31 W5        30.18S
BRIDGEPORT     CLEAR     58  32  36 W7        30.18S
DENTON         CLEAR     57  27  31 W8        30.16S
WAXAHACHIE     CLEAR     60  28  30 W7        30.18S
GRANBURY       CLEAR     60  27  27 W7        30.19S
$$

WESTERN NORTH TEXAS

CITY           SKY/WX    TMP DP  RH WIND       PRES   REMARKS
WICHITA FALLS  CLEAR     54  25  32 SW8       30.14F
VERNON         CLEAR     55  27  33 S8        30.11F
BRECKENRIDGE   CLEAR     59  22  23 W10       30.15F HAZE
COMANCHE       CLEAR     59  30  33 W7        30.19S
$$

CENTRAL AND SOUTH CENTRAL TEXAS

CITY           SKY/WX    TMP DP  RH WIND       PRES   REMARKS
AUSTIN/BERGSTM PTCLDY    64  28  25 CALM      30.20S
WACO           CLEAR     60  27  28 SW8       30.18F
HILLSBORO      CLEAR     61  26  26 W10       30.17F
TEMPLE         CLEAR     63  27  25 W6        30.18F
KILLEEN-GRAY   CLEAR     61  25  25 W6        30.19F
FORT HOOD      CLEAR     64  25  22 W5        30.18F
GEORGETOWN     CLEAR     63  27  25 SW12      30.20F
LAGO VISTA     FAIR      63  25  23 W6        30.20S
SAN MARCOS     CLEAR     64  27  24 SW9       30.21F
NEW BRAUNFELS  PTCLDY    66  27  23 SW12      30.20F
RANDOLPH AFB   CLEAR     64  26  23 SW8       30.21F
SAN ANTONIO    PTCLDY    65  26  23 SW12      30.21F
STINSON        CLEAR     64  26  23 SW9       30.20F
PLEASANTON     NOT AVBL
LA GRANGE      CLEAR     65  31  29 CALM      30.21S
GIDDINGS       CLEAR     63  25  23 NW3       30.25S
$$

EAST TEXAS

CITY           SKY/WX    TMP DP  RH WIND       PRES   REMARKS
PARIS          CLEAR     57  25  28 NW5       30.15S
CLARKSVILLE    NOT AVBL
TYLER          CLEAR     61  27  27 W8        30.16S
LONGVIEW       PTCLDY    60  29  30 SW7       30.15F
PALESTINE      CLEAR     61  27  27 W7        30.19S
NACOGDOCHES    CLEAR     57  30  35 SW3       30.20S
$$

TEXAS HILL COUNTRY AND EDWARDS PLATEAU

CITY           SKY/WX    TMP DP  RH WIND       PRES   REMARKS
LLANO          CLEAR     63  27  25 W6        30.23R
HORSESHOE BAY  FAIR      63  22  21 W5        30.20F
KERRVILLE      CLEAR     61  20  20 W8        30.21S
FREDERICKSBRG  CLEAR     60  21  22 W7        30.20S
ROCKSPRINGS    CLEAR     57  16  19 MISG      30.25R
HONDO          CLEAR     63  27  25 SW14      30.24F
UVALDE         CLEAR     65  27  23 W12       30.24R
DEL RIO        CLEAR     64  24  21 NW9       30.23F
$$

SOUTHEAST TEXAS

CITY           SKY/WX    TMP DP  RH WIND       PRES   REMARKS
COLLEGE STN    CLEAR     62  26  25 W6        30.21S
CALDWELL       CLEAR     61  27  27 W7        30.24S
CROCKETT       CLEAR     61  34  36 SW5       30.22S
BRENHAM        CLEAR     65  25  22 W5        30.22F
HUNTSVILLE     CLEAR     62  26  25 W6        30.21R
CONROE         CLEAR     61  30  31 W5        30.22S
HOUSTON BUSH   CLEAR     62  27  26 NW5       30.22S
HOUSTON HOBBY  CLEAR     64  26  23 W5        30.23R
PERLAND        CLEAR     64  27  24 CALM      30.25R
WHARTON        NOT AVBL
$$

THE UPPER TEXAS COAST

CITY           SKY/WX    TMP DP  RH WIND       PRES   REMARKS
ORANGE         CLEAR     57  33  40 CALM      30.25R
PORT ARTHUR    CLEAR     59  31  34 NW3       30.23R
GALVESTON      CLEAR     60  33  36 NE6       30.25R
ANGLETON       CLEAR     60  31  33 CALM      30.24S
BAY CITY         N/A     64  31  29 CALM      30.24S
$$

TEXAS COASTAL BEND, RIO GRANDE PLAINS DEEP SOUTH TEXAS

CITY           SKY/WX    TMP DP  RH WIND       PRES   REMARKS
VICTORIA       CLEAR     66  29  24 NW7       30.24F
BEEVILLE       FAIR      65  29  25 W6        30.25S
ROCKPORT       CLEAR     61  32  33 S5        30.26S
PORT ARANSAS   CLEAR     61  32  33 S5        30.27S
PORT LAVACA    NOT AVBL
CORPUS CHRISTI CLEAR     66  31  27 NW5       30.26F
KINGSVILLE NAS PTCLDY    66  33  29 CALM      30.27F
COTULLA        CLEAR     67  27  22 W5        30.24F
LAREDO         CLEAR     67  31  26 CALM      30.27F
BROWNSVILLE    CLEAR     65  38  36 N8        30.29R
PORT ISABEL    CLEAR     63  41  44 N9        30.29R
HEBBRONVILLE   CLEAR     65  25  22 W3        30.27F
MCALLEN        CLEAR     68  27  21 N9        30.29F
WESLACO        CLEAR     65  27  23 N6        30.29S
FALFURRIAS     CLEAR     67  26  21 NW3       30.27S
EDINBURG       CLEAR     68  28  22 CALM      30.29S
$$


USA.gov is the U.S. government's official web portal to all federal, state and local government web resources and services.